www.pogodaiklimat.ru

Погода и климат >> Архив погоды >> Кувейт >> Sabriyah


ПОГОДА в Sabriyah

  • Прогноз погоды в Sabriyah
  • Монитор погоды в Sabriyah
  • Климат города

АРХИВ ПОГОДЫ в Sabriyah

Время (UTC), дата Ветер
(напр.,м/с)
 
Видим.   Явления Облачность Т
(С)
Тd
(С)
f
(%)
Тe
(С)
Тes
(С)
Комфортность P
(гПа)
Po
(гПа)
Тmin
(С)
Tmax
(С)
R
(мм)
R24
(мм)
S
(см)
21 13.09 СЗ 5 4100 м дым н/о +32.2 -1.6 11 +29 +29 жарко 1001.8 1002.0 +28.3 +48.0
00 14.09 СЗ 5-6
{6}
14 км н/о +29.9 +0.3 15 +27 +27 жарко 1001.4 1001.0
03 14.09 СЗ 3-5
{6}
18 км н/о +27.7 +0.9 18 +26 +26 жарко 1002.4 1002.0
12 14.09 ЮВ 3-5
{5}
19 км н/о +45.5 -3.3 5 +41 +41 опасность
перегрева
1000.7 1001.0
18 14.09 ЮЗ 1-2
{6}
12 км н/о +32.3 +18.6 44 +37 +37 очень
душно
1002.9 1003.0
21 14.09 ЮЗ 2 14 км н/о +31.2 +13.5 34 +32 +32 жарко 1003.1 1003.0 +27.1 +46.6
00 15.09 З 3-3
{8}
13 км н/о +30.0 +4.3 20 +28 +28 жарко 1002.9 1003.0
03 15.09 СЗ 5-5
{6}
15 км н/о +28.0 +2.3 19 +26 +26 жарко 1003.9 1004.0
18 15.09 З 3-3
{9}
9000 м дымка н/о +36.3 +18.6 35 +40 +40 очень
душно
1005.1 1005.0
00 16.09 СЗ 5-6
{7}
6000 м дымка н/о +31.0 +7.7 23 +30 +30 жарко 1004.7 1005.0
03 16.09 СЗ 5-6
{7}
9000 м дымка н/о +29.2 +7.8 26 +28 +28 жарко 1005.8 1006.0
06 16.09 СЗ 10-11
{12}
10 км н/о +36.2 +5.0 14 +33 +33 жарко 1005.7 1006.0
09 16.09 С 8-11
{12}
13 км н/о +43.8 +3.2 9 +41 +41 опасность
перегрева
1004.1 1004.0
12 16.09 С 8-10
{12}
18 км н/о +46.4 +0.8 6 +43 +43 опасность
перегрева
1002.5 1003.0
15 16.09 С 4-5
{11}
17 км н/о +42.1 +1.0 8 +38 +38 очень
жарко
1002.6 1003.0
18 16.09 СЗ 7-8
{11}
16 км н/о +38.1 +3.8 12 +35 +35 очень
жарко
1004.4 1004.0
21 16.09 СЗ 7 18 км н/о +34.9 +4.0 15 +32 +32 жарко 1003.9 1004.0 +29.1 +46.6
00 17.09 СЗ 5-6
{9}
19 км н/о +31.2 +4.6 19 +29 +29 жарко 1003.5 1004.0
03 17.09 СЗ 4-5
{7}
20 км н/о +29.3 +4.1 20 +27 +27 жарко 1004.2 1004.0
06 17.09 С 7-9
{9}
16 км н/о +37.6 +3.5 12 +34 +34 очень
жарко
1004.6 1005.0
09 17.09 С 9-12
{12}
16 км н/о +45.3 +1.6 7 +42 +42 опасность
перегрева
1003.1 1003.0
12 17.09 С 9-11
{14}
19 км н/о +46.7 -1.0 5 +43 +43 опасность
перегрева
1001.5 1002.0
15 17.09 С 5-6
{12}
18 км н/о +42.6 +1.7 8 +39 +39 очень
жарко
1001.9 1002.0
18 17.09 СЗ 5-7
{12}
16 км н/о +37.5 +2.1 11 +34 +34 очень
жарко
1003.4 1003.0
21 17.09 С 4 15 км н/о +33.9 +3.8 15 +31 +31 жарко 1003.6 1004.0 +29.1 +47.3
00 18.09 З 3-4
{8}
16 км н/о +31.0 +4.8 19 +29 +29 жарко 1003.3 1003.0
03 18.09 З 4-4
{5}
14 км н/о +28.6 +5.5 23 +27 +27 жарко 1004.6 1005.0
06 18.09 С 5-6
{6}
14 км н/о +37.8 +5.0 13 +35 +35 очень
жарко
1005.5 1006.0
09 18.09 С 5-8
{9}
16 км н/о +45.3 +3.6 8 +42 +42 опасность
перегрева
1003.9 1004.0
12 18.09 СВ 5-7
{9}
18 км н/о +46.2 +10.1 12 +42 +42 опасность
перегрева
1002.5 1003.0
15 18.09 Ю 3-5
{8}
17 км н/о +37.0 +19.6 36 +42 +42 опасность
перегрева
1003.3 1003.0
18 18.09 ЮВ 5-6
{8}
12 км н/о +32.8 +26.9 71 +50 +50 опасность
перегрева
1005.8 1006.0
21 18.09 ЮВ 7 3800 м дымка н/о +31.2 +29.0 88 +54 +54 опасность
перегрева
1005.8 1006.0 +28.3 +46.7
00 19.09 Ю 1-3
{10}
3700 м дымка н/о +30.4 +30.1 98 +56 +56 опасность
перегрева
1005.3 1005.0
03 19.09 ЮЗ 3-3
{4}
800 м туман {дымка} н/о +28.2 +27.5 96 1006.4 1006.0
06 19.09 ЮВ 4-5
{6}
8000 м дымка {туман} н/о +34.6 +24.7 57 +48 +48 опасность
перегрева
1007.1 1007.0
09 19.09 ЮВ 6-9
{9}
6000 м дымка н/о +38.5 +25.5 48 +53 +53 опасность
перегрева
1005.7 1006.0
12 19.09 Ю 3-7
{10}
14 км н/о +41.0 +24.3 39 +42 +42 опасность
перегрева
1004.4 1004.0
15 19.09 ЮВ 7-8
{9}
12 км н/о +34.8 +24.3 55 +47 +47 опасность
перегрева
1004.4 1004.0
18 19.09 Ю 2-4
{9}
6000 м дымка н/о +31.9 +28.8 84 +55 +55 опасность
перегрева
1005.8 1006.0
21 19.09 Ю 3 4100 м дымка н/о +30.6 +29.1 92 +54 +54 опасность
перегрева
1005.1 1005.0 +28.2 +41.4
00 20.09 ЮЗ 4-5
{7}
5000 м дымка н/о +28.9 +25.6 82 +43 +43 опасность
перегрева
1004.7 1005.0
03 20.09 З 3-3
{7}
6000 м дымка н/о +28.0 +23.9 78 +39 +39 очень
душно
1005.9 1006.0
06 20.09 СЗ 3-4
{7}
12 км н/о +37.3 +17.1 31 +40 +40 очень
душно
1006.9 1007.0
09 20.09 З 3-5
{6}
14 км н/о +43.8 +8.0 12 +42 +42 опасность
перегрева
1005.5 1006.0
12 20.09 СЗ 4-6
{8}
16 км н/о +45.8 +34.2 54 +85 +85 опасность
перегрева
1003.4 1003.0

 

Местоположение метеостанции Sabriyah (Кувейт): широта 29.75 долгота 47.85 высота над уровнем моря 56 м.

В архиве по умолчанию представлена погода в Sabriyah за последнюю неделю. Архивные данные за месяц целиком и за предыдущие месяцы, начиная с января 2011 года, Вы можете получить, выбрав интересующий диапазон дат из раскрывающегося списка и нажав кнопку "Ввод!".


*Определитесь, кто Вы:
робот инопланетянин человек

Внимание! Время в таблицах - всемирное. Для получения местного времени необходимо прибавить поправку, которая в Sabriyah равна 3 ч.

Смотрите также архив погоды в соседних городах и на ближайших метеорологических станциях:

Погода в Jal Aliyah (Кувейт) (30 км)
Погода в Abdaly (Кувейт) (39 км)
Погода в Mitribah (Кувейт) (47 км)
Погода в Kuwait City (Кувейт) (51 км)
Погода в Al-Shuaiba (Кувейт) (51 км)
Погода в Jahra (Кувейт) (51 км)
Погода в Bubiyan (Кувейт) (51 км)
Погода в Experimental Farm (Кувейт) (52 км)
Погода в Failaka Island (Кувейт) (52 км)
Погода в Sulaibiya (Кувейт) (55 км)

Пояснения к столбцам:

Ветер - указаны скорость ветра в м/с - средняя за 10 мин, порывы в срок и между сроками (в фигурных скобках) и направление, откуда дует ветер: С - северный, СВ - северо-восточный, В - восточный, ЮВ - юго-восточный, Ю - южный, ЮЗ - юго-западный, З - западный, СЗ - северо-западный.
Видимость - горизонтальная дальность видимости в метрах или километрах. При видимости от 1 до 10 км при отсутствии осадков обычно наблюдается дымка, при ухудшении видимости до 1 км и менее - туман. В сухую погоду видимость может ухудшаться дымом, пылью или мглою.
Явления - указаны атмосферные явления, наблюдавшиеся в срок или в последний час перед сроком; фигурными скобками обозначены явления, наблюдавшиеся между сроками (за 1-3 часа до срока); квадратными скобками обозначены град или гололедные отложения с указанием их диаметра в мм.
Облачность - указаны через наклонную черту общая и нижняя облачность в баллах и высота нижней границы облаков в метрах; квадратными скобками обозначены формы облаков: Ci - перистые, Cs - перисто-слоистые, Cc - перисто-кучевые, Ac - высококучевые, As - высокослоистые, Sc - слоисто-кучевые, Ns - слоисто-дождевые, Cu - кучевые, Cb - кучево-дождевые. Подробнее классификацию облаков см. в Атласе облаков (PDF).
T - Температура воздуха - температура, измеренная на высоте 2 м над землей.
Td - Температура точки росы - температура, при понижении до которой содержащийся в воздухе водяной пар достигнет насыщения.
f - Относительная влажность воздуха - влажноcть воздуха, измеренная на высоте 2 м над землей.
Te - Эффективная температура - температура, которую ощущает одетый по сезону человек в тени. Характеристика душности погоды. При расчете учитывается влияние влажности воздуха и скорости ветра на теплоощущения человека.
Tes - Эффективная температура на солнце - температура, которую ощущает человек, с поправкой на солнечный нагрев. Характеристика знойности погоды. Зависит от высоты солнца над горизонтом, облачности и скорости ветра. Ночью, в пасмурную погоду, а также при ветре 12 м/с и более поправка равна нулю.
P - Атмосферное давление - приведенное к уровню моря атмосферное давление.
Po - Атмосферное давление - измеренное на уровне метеостанции атмосферное давление.
Tmin - Минимальная температура - минимум температуры воздуха на высоте 2 м над землей.
Tmax - Максимальная температура - максимум температуры воздуха на высоте 2 м над землей.
R - Количество осадков - Количество выпавших осадков за период времени, мм. При наведении курсора мыши на число - период времени, за который выпало указанное количество осадков.
R24 - Количество осадков - Количество выпавших осадков за 24 часа, мм.
S - Снежный покров - Высота снежного покрова, см. При наведении курсора мыши на число - состояние снежного покрова и степень покрытия местности в баллах.